Copper Mountain, CO

4:24 AM MDT on May 20, 2018 (GMT -0600)
Copper Mountain

Weather History for KCCU - March, 2013

Change the Weather History Date:

Sunday, March 24, 2013

  Actual Average Record
Temperature  
Mean Temperature 2 °F -  
Max Temperature 5 °F - 50 °F (2012)
Min Temperature 0 °F - 0 °F (2013)
Degree Days  
Heating Degree Days 62    
Month to date heating degree days  
Cooling Degree Days 0    
Month to date cooling degree days  
Moisture  
Dew Point -6 °F    
Average Humidity 70    
Maximum Humidity 72    
Minimum Humidity 66    
Precipitation  
Precipitation 0.00 in - 0.29 in (2004)
Snow  
Snow 0.00 in - - ()
Snow Depth -    
Sea Level Pressure  
Sea Level Pressure 29.81 in    
Wind  
Wind Speed 20 mph (West)    
Max Wind Speed 32 mph    
Max Gust Speed 43 mph    
T = Trace of Precipitation, MM = Missing Value Source: NWS Daily Summary

Daily Weather History Graph

Daily Weather History Graph

Search for Another Location

Airport or City:

Astronomy

Mar. 24, 2013 Rise Set
Actual Time 7:01 AM MDT 7:20 PM MDT
Civil Twilight 6:34 AM MDT 7:47 PM MDT
Nautical Twilight 6:02 AM MDT 8:19 PM MDT
Astronomical Twilight 5:30 AM MDT 8:51 PM MDT
Moon 4:52 PM MDT (3/24) 5:12 AM MDT (3/24)
Length of Visible Light 13h 13m
Length of Day
12h 19m
Waxing Gibbous, 92% of the Moon is Illuminated
Mar 24
Waxing Gibbous
Mar 27
Full
Apr 2
Last Quarter
Apr 10
New
Apr 18
First Quarter

Hourly Weather History & Observations

Time (MDT) Temp. Windchill Dew Point Humidity Pressure Visibility Wind Dir Wind Speed Gust Speed Precip Events Conditions
12:12 AM 1.4 °F -19.4 °F -5.8 °F 72% 29.83 in - West 18.4 mph - N/A   Overcast
12:32 AM 1.4 °F -20.5 °F -7.6 °F 66% 29.82 in - West 20.7 mph - N/A   Overcast
12:52 AM -0.4 °F -22.3 °F -7.6 °F 72% 29.82 in - West 19.6 mph - N/A   Overcast
1:12 AM -0.4 °F -22.8 °F -7.6 °F 72% 29.83 in - West 20.7 mph - N/A   Overcast
1:32 AM -0.4 °F -20.5 °F -7.6 °F 72% 29.83 in - West 16.1 mph - N/A   Overcast
1:52 AM -0.4 °F -22.3 °F -7.6 °F 72% 29.82 in - West 19.6 mph - N/A   Overcast
2:12 AM -0.4 °F -23.3 °F -7.6 °F 72% 29.81 in - West 21.9 mph - N/A   Overcast
2:32 AM -0.4 °F -21.7 °F -7.6 °F 72% 29.81 in - West 18.4 mph - N/A   Mostly Cloudy
2:52 AM -0.4 °F -22.8 °F -7.6 °F 72% 29.81 in - West 20.7 mph - N/A   Overcast
3:12 AM -0.4 °F -21.7 °F -7.6 °F 72% 29.80 in - West 18.4 mph - N/A   Overcast
3:32 AM -0.4 °F -21.2 °F -7.6 °F 72% 29.79 in - West 17.3 mph - N/A   Overcast
3:52 AM -0.4 °F -19.2 °F -7.6 °F 72% 29.79 in - West 13.8 mph - N/A   Overcast
4:12 AM -0.4 °F -18.4 °F -7.6 °F 72% 29.77 in - West 12.7 mph - N/A   Overcast
4:32 AM -0.4 °F -19.9 °F -7.6 °F 72% 29.77 in - West 15.0 mph - N/A   Overcast
4:52 AM -0.4 °F -20.5 °F -7.6 °F 72% 29.77 in - West 16.1 mph - N/A   Overcast
5:12 AM -0.4 °F -19.2 °F -7.6 °F 72% 29.77 in - West 13.8 mph 18.4 mph N/A   Overcast
5:32 AM -0.4 °F -18.4 °F -7.6 °F 72% 29.77 in - West 12.7 mph 17.3 mph N/A   Overcast
5:52 AM -0.4 °F -21.7 °F -7.6 °F 72% 29.77 in - West 18.4 mph - N/A   Overcast
6:12 AM -0.4 °F -23.8 °F -7.6 °F 72% 29.76 in - West 23.0 mph 28.8 mph N/A   Overcast
6:21 AM -0.4 °F -23.8 °F -7.6 °F 72% 29.77 in - West 23.0 mph 27.6 mph N/A   Overcast
7:32 AM -0.4 °F -21.2 °F -7.6 °F 72% 29.77 in - West 17.3 mph - N/A   Overcast
7:52 AM -0.4 °F -21.7 °F -7.6 °F 72% 29.78 in - West 18.4 mph - N/A   Overcast
8:12 AM -0.4 °F -20.5 °F -7.6 °F 72% 29.78 in - West 16.1 mph - N/A   Overcast
8:32 AM -0.4 °F -21.7 °F -7.6 °F 72% 29.77 in - West 18.4 mph 26.5 mph N/A   Overcast
8:52 AM -0.4 °F -22.3 °F -7.6 °F 72% 29.78 in - West 19.6 mph 26.5 mph N/A   Overcast
9:12 AM 1.4 °F - -7.6 °F 66% 29.77 in - North - - N/A   Overcast
9:32 AM 1.4 °F -21.4 °F -7.6 °F 66% 29.78 in - West 23.0 mph 31.1 mph N/A   Overcast
9:52 AM 1.4 °F -22.7 °F -5.8 °F 72% 29.77 in - West 26.5 mph - N/A   Overcast
10:12 AM 1.4 °F -21.0 °F -5.8 °F 72% 29.78 in - West 21.9 mph - N/A   Overcast
10:32 AM 1.4 °F - -5.8 °F 72% 29.77 in - North - - N/A   Overcast
10:52 AM 1.4 °F -22.3 °F -5.8 °F 72% 29.79 in - West 25.3 mph 31.1 mph N/A   Overcast
11:12 AM 1.4 °F - -5.8 °F 72% 29.78 in - North - - N/A   Overcast
11:32 AM 3.2 °F - -5.8 °F 66% 29.77 in - North - - N/A   Overcast
11:52 AM 3.2 °F -19.5 °F -4.0 °F 72% 29.77 in - West 24.2 mph - N/A   Overcast
12:12 PM 3.2 °F - -5.8 °F 66% 29.79 in - North - - N/A   Overcast
12:32 PM 5.0 °F -18.7 °F -4.0 °F 66% 29.78 in - West 28.8 mph - N/A   Overcast
12:52 PM 5.0 °F - -4.0 °F 66% 29.78 in - North - - N/A   Overcast
1:12 PM 5.0 °F -17.1 °F -2.2 °F 72% 29.78 in - WNW 24.2 mph - N/A   Overcast
1:32 PM 5.0 °F - -4.0 °F 66% 29.77 in - North - - N/A   Overcast
1:52 PM 5.0 °F -16.2 °F -4.0 °F 66% 29.78 in - West 21.9 mph - N/A   Overcast
2:12 PM 5.0 °F -19.4 °F -4.0 °F 66% 29.77 in - West 31.1 mph 38.0 mph N/A   Overcast
2:32 PM 5.0 °F -19.7 °F -2.2 °F 72% 29.77 in - West 32.2 mph 39.1 mph N/A   Overcast
2:52 PM 5.0 °F -16.7 °F -2.2 °F 72% 29.78 in - WNW 23.0 mph 42.6 mph N/A   Overcast
3:12 PM 5.0 °F - -4.0 °F 66% 29.78 in - North - - N/A   Overcast
3:32 PM 5.0 °F -19.7 °F -4.0 °F 66% 29.77 in - West 32.2 mph 39.1 mph N/A   Overcast
3:52 PM 5.0 °F -16.7 °F -2.2 °F 72% 29.79 in - WNW 23.0 mph 38.0 mph N/A   Overcast
4:12 PM 5.0 °F -17.5 °F -4.0 °F 66% 29.80 in - WNW 25.3 mph - N/A   Overcast
4:32 PM 3.2 °F -20.3 °F -4.0 °F 72% 29.80 in - West 26.5 mph - N/A   Overcast
4:52 PM 3.2 °F -19.0 °F -5.8 °F 66% 29.81 in - West 23.0 mph - N/A   Overcast
5:12 PM 3.2 °F -20.3 °F -5.8 °F 66% 29.82 in - West 26.5 mph 34.5 mph N/A   Overcast
5:32 PM 3.2 °F -16.5 °F -5.8 °F 66% 29.83 in - WNW 17.3 mph 33.4 mph N/A   Overcast
5:52 PM 3.2 °F -15.3 °F -4.0 °F 72% 29.84 in - West 15.0 mph - N/A   Overcast
6:12 PM 3.2 °F - -4.0 °F 72% 29.83 in - North - - N/A   Overcast
6:32 PM 3.2 °F - -5.8 °F 66% 29.84 in - North - - N/A   Overcast
6:52 PM 3.2 °F -18.1 °F -5.8 °F 66% 29.85 in - WNW 20.7 mph 28.8 mph N/A   Overcast
7:12 PM 1.4 °F -18.8 °F -5.8 °F 72% 29.85 in - West 17.3 mph 25.3 mph N/A   Overcast
7:32 PM 1.4 °F -18.8 °F -5.8 °F 72% 29.86 in - West 17.3 mph - N/A   Overcast
7:52 PM 1.4 °F - -5.8 °F 72% 29.86 in - North - - N/A   Overcast
8:12 PM 1.4 °F -18.8 °F -7.6 °F 66% 29.87 in - West 17.3 mph 25.3 mph N/A   Overcast
8:32 PM 1.4 °F -20.5 °F -7.6 °F 66% 29.87 in - West 20.7 mph 25.3 mph N/A   Overcast
8:52 PM 1.4 °F -19.4 °F -7.6 °F 66% 29.88 in - West 18.4 mph - N/A   Overcast
9:12 PM 1.4 °F -19.9 °F -7.6 °F 66% 29.88 in - West 19.6 mph - N/A   Overcast
9:32 PM 1.4 °F -19.4 °F -7.6 °F 66% 29.89 in - West 18.4 mph 25.3 mph N/A   Overcast
9:52 PM 1.4 °F -19.9 °F -7.6 °F 66% 29.88 in - West 19.6 mph - N/A   Overcast
10:12 PM -0.4 °F -22.3 °F -7.6 °F 72% 29.89 in - West 19.6 mph - N/A   Overcast
10:32 PM -0.4 °F -21.2 °F -7.6 °F 72% 29.89 in - West 17.3 mph 25.3 mph N/A   Scattered Clouds
10:52 PM -0.4 °F -22.8 °F -7.6 °F 72% 29.89 in - West 20.7 mph - N/A   Scattered Clouds
11:12 PM -0.4 °F -22.3 °F -7.6 °F 72% 29.89 in - West 19.6 mph 27.6 mph N/A   Clear
11:32 PM -0.4 °F -23.8 °F -7.6 °F 72% 29.89 in - West 23.0 mph - N/A   Clear
11:52 PM -0.4 °F -22.3 °F -7.6 °F 72% 29.90 in - West 19.6 mph - N/A   Clear